Date String (YYYY-MM-DD hh:mm:ss) UTC,Instrument flags,Ambient pressure (hPa),Sample flow (lpm),Bypass flow (lpm),Sample temperature (°C),Ambient temperature (°C),ASC tube jacket temperature (°C),LED temperature (°C),Box temperature (°C),Sample RH (%),Span deviation,Mass concentration (μg/m³),Mass concentration (μg/m³),Mass concentration (μg/m³)
DateTimeUTC,F1_M11,P_M11,Q1_M11,Q2_M11,T1_M11,T2_M11,T3_M11,T4_M11,T5_M11,U1_M11,ZSPAN_M11,X0_M11,X2_M11,X1_M11
2023-02-12 02:00:00,,0822.2,4.99,0.00,24.6,22.6,00.0,33.8,26.3,10.6,0000.0,0016.55,0009.13,0008.33
2023-02-12 02:01:00,,0822.2,5.01,0.00,24.6,22.6,00.0,33.7,26.3,10.8,0000.0,0016.61,0009.05,0008.28
2023-02-12 02:02:00,,0822.2,5.00,0.00,24.6,22.5,00.0,33.7,26.2,10.9,0000.0,0016.38,0008.87,0008.16
2023-02-12 02:03:00,,0822.2,5.00,0.00,24.5,22.4,00.0,33.7,26.2,10.9,0000.0,0016.31,0008.71,0008.02
2023-02-12 02:04:00,,0822.2,4.99,0.00,24.5,22.3,00.0,33.6,26.1,11.0,0000.0,0016.47,0008.60,0007.86
2023-02-12 02:05:00,,0822.3,4.98,0.00,24.5,22.3,00.0,33.6,26.1,10.9,0000.0,0016.91,0008.49,0007.70
2023-02-12 02:06:00,,0822.3,5.01,0.00,24.4,22.3,00.0,33.6,26.1,10.8,0000.0,0016.50,0008.31,0007.52
2023-02-12 02:07:00,,0822.3,4.97,0.00,24.4,22.3,00.0,33.6,26.0,10.8,0000.0,0016.40,0008.15,0007.33
2023-02-12 02:08:00,,0822.3,5.01,0.00,24.4,22.3,00.0,33.5,26.0,10.8,0000.0,0015.92,0007.94,0007.17
2023-02-12 02:09:00,,0822.3,4.98,0.00,24.4,22.3,00.0,33.5,26.0,10.8,0000.0,0014.99,0007.77,0007.02
2023-02-12 02:10:00,,0822.3,5.01,0.00,24.3,22.2,00.0,33.5,26.0,10.8,0000.0,0015.55,0007.58,0006.83
2023-02-12 02:11:00,,0822.3,4.99,0.00,24.3,22.1,00.0,33.4,25.9,10.8,0000.0,0015.33,0007.39,0006.66
2023-02-12 02:12:00,,0822.3,5.00,0.00,24.3,22.1,00.0,33.4,25.9,10.8,0000.0,0014.74,0007.22,0006.53
2023-02-12 02:13:00,,0822.3,5.01,0.00,24.2,22.0,00.0,33.4,25.8,10.8,0000.0,0015.40,0007.22,0006.48
2023-02-12 02:14:00,,0822.4,5.00,0.00,24.2,22.0,00.0,33.3,25.7,10.8,0000.0,0015.41,0007.18,0006.45
2023-02-12 02:15:00,,0822.4,5.01,0.00,24.2,22.1,00.0,33.3,25.7,10.9,0000.0,0015.52,0007.10,0006.42
2023-02-12 02:16:00,,0822.4,5.01,0.00,24.1,22.1,00.0,33.3,25.8,10.8,0000.0,0014.48,0007.02,0006.39
2023-02-12 02:17:00,,0822.4,4.96,0.00,24.1,22.1,00.0,33.3,25.8,10.8,0000.0,0014.78,0006.98,0006.38
2023-02-12 02:18:00,,0822.4,5.01,0.00,24.1,22.1,00.0,33.2,25.7,10.8,0000.0,0014.71,0006.94,0006.37
2023-02-12 02:19:00,,0822.4,5.00,0.00,24.1,22.1,00.0,33.2,25.7,10.7,0000.0,0014.18,0006.91,0006.36
2023-02-12 02:20:00,,0822.4,4.99,0.00,24.1,22.1,00.0,33.2,25.7,10.7,0000.0,0014.05,0006.88,0006.34
2023-02-12 02:21:00,,0822.4,5.02,0.00,24.1,22.1,00.0,33.2,25.7,10.7,0000.0,0013.61,0006.92,0006.33
2023-02-12 02:22:00,,0822.4,5.00,0.00,24.1,22.1,00.0,33.2,25.8,10.7,0000.0,0013.57,0006.97,0006.34
2023-02-12 02:23:00,,0822.3,4.98,0.00,24.1,22.1,00.0,33.1,25.8,10.6,0000.0,0013.84,0007.04,0006.36
2023-02-12 02:24:00,,0822.3,5.03,0.00,24.1,22.2,00.0,33.1,25.9,10.6,0000.0,0013.42,0007.11,0006.42
2023-02-12 02:25:00,,0822.3,4.97,0.00,24.1,22.3,00.0,33.1,25.9,10.7,0000.0,0013.08,0007.25,0006.52
2023-02-12 02:26:00,,0822.2,5.00,0.00,24.1,22.4,00.0,33.1,26.0,10.6,0000.0,0013.61,0007.41,0006.61
2023-02-12 02:27:00,,0822.2,5.00,0.00,24.1,22.5,00.0,33.1,26.0,10.6,0000.0,0013.74,0007.53,0006.68
2023-02-12 02:28:00,,0822.2,5.00,0.00,24.2,22.5,00.0,33.1,26.0,10.6,0000.0,0013.76,0007.58,0006.75
2023-02-12 02:29:00,,0822.2,5.03,0.00,24.2,22.6,00.0,33.1,26.0,10.6,0000.0,0013.82,0007.63,0006.81
2023-02-12 02:30:00,,0822.2,5.02,0.00,24.2,22.6,00.0,33.1,26.0,10.6,0000.0,0013.87,0007.67,0006.86
2023-02-12 02:31:00,,0822.2,4.99,0.00,24.2,22.6,00.0,33.1,26.0,10.6,0000.0,0014.38,0007.75,0006.90
2023-02-12 02:32:00,,0822.2,4.98,0.00,24.2,22.5,00.0,33.1,25.9,10.6,0000.0,0014.79,0007.81,0006.94
2023-02-12 02:33:00,,0822.2,5.00,0.00,24.2,22.4,00.0,33.1,25.9,10.6,0000.0,0014.79,0007.83,0006.99
2023-02-12 02:34:00,,0822.2,5.02,0.00,24.1,22.3,00.0,33.1,25.8,10.6,0000.0,0015.26,0007.89,0007.04
2023-02-12 02:35:00,,0822.2,5.01,0.00,24.1,22.2,00.0,33.1,25.8,10.6,0000.0,0015.47,0007.83,0007.03
2023-02-12 02:36:00,,0822.1,4.98,0.00,24.1,22.2,00.0,33.1,25.8,10.5,0000.0,0015.25,0007.71,0006.98
2023-02-12 02:37:00,,0822.1,4.98,0.00,24.1,22.2,00.0,33.1,25.8,10.5,0000.0,0015.03,0007.64,0006.95
2023-02-12 02:38:00,,0822.2,4.99,0.00,24.1,22.2,00.0,33.0,25.8,10.5,0000.0,0014.78,0007.59,0006.92
2023-02-12 02:39:00,,0822.1,5.00,0.00,24.1,22.2,00.0,33.0,25.9,10.6,0000.0,0015.43,0007.58,0006.89
2023-02-12 02:40:00,,0822.1,5.00,0.00,24.1,22.2,00.0,33.0,25.8,10.5,0000.0,0015.75,0007.61,0006.86
2023-02-12 02:41:00,,0822.1,5.00,0.00,24.0,22.2,00.0,33.0,25.8,10.6,0000.0,0016.64,0007.68,0006.88
2023-02-12 02:42:00,,0822.1,5.00,0.00,24.1,22.3,00.0,33.0,25.9,10.5,0000.0,0017.08,0007.68,0006.87
2023-02-12 02:43:00,,0822.1,4.98,0.00,24.1,22.4,00.0,33.0,25.9,10.2,0000.0,0016.49,0007.58,0006.79
2023-02-12 02:44:00,,0822.1,5.00,0.00,24.1,22.4,00.0,33.0,26.0,10.2,0000.0,0016.25,0007.48,0006.69
2023-02-12 02:45:00,,0822.1,4.99,0.00,24.1,22.5,00.0,33.0,26.0,10.2,0000.0,0015.84,0007.32,0006.57
2023-02-12 02:46:00,,0822.1,5.00,0.00,24.1,22.6,00.0,33.0,26.1,10.2,0000.0,0015.63,0007.24,0006.50
2023-02-12 02:47:00,,0822.1,5.01,0.00,24.2,22.6,00.0,33.0,26.1,10.4,0000.0,0015.94,0007.25,0006.47
2023-02-12 02:48:00,,0822.1,5.00,0.00,24.2,22.7,00.0,33.0,26.1,10.5,0000.0,0016.18,0007.34,0006.51
2023-02-12 02:49:00,,0822.1,5.01,0.00,24.2,22.7,00.0,33.0,26.1,10.6,0000.0,0016.60,0007.46,0006.57
2023-02-12 02:50:00,,0822.1,5.03,0.00,24.2,22.7,00.0,33.0,26.1,10.6,0000.0,0016.11,0007.53,0006.65
2023-02-12 02:51:00,,0822.1,5.01,0.00,24.2,22.7,00.0,33.0,26.1,10.5,0000.0,0016.08,0007.57,0006.70
2023-02-12 02:52:00,,0822.0,5.02,0.00,24.2,22.7,00.0,33.0,26.1,10.5,0000.0,0015.23,0007.56,0006.72
2023-02-12 02:53:00,,0822.1,4.96,0.00,24.2,22.7,00.0,33.0,26.1,10.5,0000.0,0014.61,0007.61,0006.76
2023-02-12 02:54:00,,0822.0,4.97,0.00,24.2,22.7,00.0,33.0,26.1,10.5,0000.0,0015.22,0007.81,0006.87
2023-02-12 02:55:00,,0822.0,5.03,0.00,24.2,22.7,00.0,33.1,26.1,10.5,0000.0,0015.64,0007.94,0007.00
2023-02-12 02:56:00,,0822.1,5.01,0.00,24.2,22.7,00.0,33.1,26.1,10.5,0000.0,0017.51,0008.28,0007.21
2023-02-12 02:57:00,,0822.1,5.01,0.00,24.2,22.7,00.0,33.1,26.1,10.6,0000.0,0018.25,0008.58,0007.43
2023-02-12 02:58:00,,0822.1,5.00,0.00,24.2,22.7,00.0,33.1,26.1,10.6,0000.0,0019.02,0008.80,0007.63
2023-02-12 02:59:00,,0822.1,5.02,0.00,24.3,22.8,00.0,33.1,26.2,10.6,0000.0,0020.13,0008.90,0007.74
